| time (UTC) | temp F | wind direction | speed MPH | gust MPH | rain 1hr in | rain 24hr in | rain mn in | humidity % | barometer mb |
| 20260505051119 | 48 | 192 | 3.0 | 6.0 | 0.00 | 0.00 | 0.00 | 40 | 1006.6 |
| 20260505050616 | 48 | 211 | 2.0 | 2.0 | 0.00 | 0.00 | 0.00 | 40 | 1006.6 |
| 20260505050114 | 49 | 140 | 3.0 | 4.0 | 0.00 | 0.00 | 0.00 | 40 | 1006.6 |
| 20260505041544 | 51 | 220 | 4.0 | 4.0 | 0.00 | 0.00 | 0.00 | 37 | 1006.0 |
| 20260505041041 | 51 | 101 | 2.0 | 2.0 | 0.00 | 0.00 | 0.00 | 37 | 1006.0 |
| 20260505040538 | 51 | 222 | 5.0 | 7.0 | 0.00 | 0.00 | 0.00 | 36 | 1006.0 |
| 20260505040036 | 51 | 177 | 4.0 | 6.0 | 0.00 | 0.00 | 0.00 | 37 | 1005.6 |
| 20260505035531 | 51 | 296 | 4.0 | 6.0 | 0.00 | 0.00 | 0.00 | 36 | 1005.6 |
| 20260505035028 | 51 | 258 | 4.0 | 6.0 | 0.00 | 0.00 | 0.00 | 37 | 1005.6 |
| 20260505034525 | 51 | 182 | 3.0 | 3.0 | 0.00 | 0.00 | 0.00 | 36 | 1005.6 |
| 20260505034022 | 51 | 158 | 3.0 | 4.0 | 0.00 | 0.00 | 0.00 | 36 | 1005.3 |
| 20260505033519 | 52 | 185 | 3.0 | 4.0 | 0.00 | 0.00 | 0.00 | 37 | 1005.3 |
| 20260505033017 | 52 | 179 | 5.0 | 9.0 | 0.00 | 0.00 | 0.00 | 37 | 1005.3 |
| 20260505032514 | 52 | 240 | 2.0 | 2.0 | 0.00 | 0.00 | 0.00 | 37 | 1004.8 |
| 20260505032010 | 52 | 198 | 2.0 | 2.0 | 0.00 | 0.00 | 0.00 | 37 | 1004.8 |
| 20260505031508 | 52 | 200 | 3.0 | 4.0 | 0.00 | 0.00 | 0.00 | 36 | 1004.8 |
| 20260505031004 | 52 | 204 | 2.0 | 2.0 | 0.00 | 0.00 | 0.00 | 36 | 1004.8 |
| 20260505030501 | 53 | 237 | 4.0 | 6.0 | 0.00 | 0.00 | 0.00 | 35 | 1004.8 |
| 20260505025955 | 53 | 182 | 2.0 | 4.0 | 0.00 | 0.00 | 0.00 | 36 | 1004.8 |
| 20260505025453 | 53 | 169 | 2.0 | 3.0 | 0.00 | 0.00 | 0.00 | 36 | 1004.5 |
| 20260505024952 | 53 | 171 | 2.0 | 2.0 | 0.00 | 0.00 | 0.00 | 36 | 1004.5 |
| 20260505024449 | 54 | 174 | 3.0 | 3.0 | 0.00 | 0.00 | 0.00 | 36 | 1004.2 |
| 20260505023946 | 54 | 337 | 4.0 | 6.0 | 0.00 | 0.00 | 0.00 | 36 | 1004.2 |
| 20260505023443 | 54 | 248 | 3.0 | 3.0 | 0.00 | 0.00 | 0.00 | 36 | 1004.2 |
| 20260505022940 | 55 | 197 | 4.0 | 6.0 | 0.00 | 0.00 | 0.00 | 35 | 1003.8 |
| 20260505022438 | 55 | 160 | 5.0 | 7.0 | 0.00 | 0.00 | 0.00 | 35 | 1003.5 |
| 20260505021935 | 55 | 284 | 3.0 | 4.0 | 0.00 | 0.00 | 0.00 | 35 | 1003.5 |
| 20260505021431 | 55 | 244 | 4.0 | 6.0 | 0.00 | 0.00 | 0.00 | 34 | 1003.5 |
| 20260505020927 | 56 | 171 | 5.0 | 7.0 | 0.00 | 0.00 | 0.00 | 35 | 1003.2 |
| 20260505020422 | 56 | 255 | 3.0 | 4.0 | 0.00 | 0.00 | 0.00 | 35 | 1003.2 |
| 20260505015919 | 56 | 169 | 3.0 | 9.0 | 0.00 | 0.00 | 0.00 | 34 | 1003.2 |
| 20260505015417 | 56 | 237 | 3.0 | 4.0 | 0.00 | 0.00 | 0.00 | 34 | 1003.2 |
| 20260505014914 | 57 | 190 | 3.0 | 4.0 | 0.00 | 0.00 | 0.00 | 34 | 1002.5 |
| 20260505014411 | 57 | 262 | 5.0 | 8.0 | 0.00 | 0.00 | 0.00 | 33 | 1002.5 |
| 20260505013908 | 57 | 201 | 6.0 | 7.0 | 0.00 | 0.00 | 0.00 | 34 | 1002.5 |
| 20260505013404 | 57 | 178 | 3.0 | 4.0 | 0.00 | 0.00 | 0.00 | 34 | 1002.1 |
| 20260505012903 | 58 | 242 | 7.0 | 9.0 | 0.00 | 0.00 | 0.00 | 33 | 1002.1 |
| 20260505012400 | 58 | 196 | 3.0 | 6.0 | 0.00 | 0.00 | 0.00 | 33 | 1002.1 |
| 20260505011856 | 58 | 16 | 3.0 | 3.0 | 0.00 | 0.00 | 0.00 | 33 | 1001.8 |
| 20260505011353 | 58 | 242 | 7.0 | 10.0 | 0.00 | 0.00 | 0.00 | 32 | 1001.8 |
| 20260505010849 | 59 | 180 | 4.0 | 7.0 | 0.00 | 0.00 | 0.00 | 31 | 1001.5 |
| 20260505010345 | 59 | 158 | 5.0 | 6.0 | 0.00 | 0.00 | 0.00 | 32 | 1001.5 |
| 20260505005842 | 59 | 232 | 5.0 | 6.0 | 0.00 | 0.00 | 0.00 | 31 | 1001.5 |
| 20260505005338 | 60 | 184 | 7.0 | 11.0 | 0.00 | 0.00 | 0.00 | 30 | 1001.1 |
| 20260505004836 | 60 | 159 | 4.0 | 4.0 | 0.00 | 0.00 | 0.00 | 32 | 1001.1 |
| 20260505004332 | 60 | 160 | 4.0 | 4.0 | 0.00 | 0.00 | 0.00 | 31 | 1001.1 |
| 20260505003830 | 60 | 230 | 2.0 | 3.0 | 0.00 | 0.00 | 0.00 | 30 | 1001.1 |
| 20260505003327 | 61 | 196 | 7.0 | 10.0 | 0.00 | 0.00 | 0.00 | 29 | 1001.1 |
| 20260505002822 | 61 | 203 | 4.0 | 6.0 | 0.00 | 0.00 | 0.00 | 28 | 1001.1 |
| 20260505002320 | 61 | 163 | 6.0 | 9.0 | 0.00 | 0.00 | 0.00 | 28 | 1001.1 |
| 20260505001818 | 61 | 249 | 2.0 | 4.0 | 0.00 | 0.00 | 0.00 | 28 | 1001.1 |
| 20260505001315 | 61 | 225 | 9.0 | 13.0 | 0.00 | 0.00 | 0.00 | 28 | 1000.7 |
| 20260505000812 | 62 | 116 | 6.0 | 7.0 | 0.00 | 0.00 | 0.00 | 27 | 1000.7 |
| 20260505000310 | 62 | 144 | 5.0 | 7.0 | 0.00 | 0.00 | 0.00 | 28 | 1000.7 |
| 20260504235806 | 62 | 196 | 8.0 | 10.0 | 0.00 | 0.00 | 0.00 | 28 | 1000.7 |
| 20260504235304 | 62 | 185 | 4.0 | 6.0 | 0.00 | 0.00 | 0.00 | 27 | 1000.7 |
| 20260504234800 | 63 | 245 | 5.0 | 7.0 | 0.00 | 0.00 | 0.00 | 27 | 1000.3 |
| 20260504234258 | 63 | 201 | 7.0 | 10.0 | 0.00 | 0.00 | 0.00 | 26 | 1000.3 |
| 20260504233753 | 63 | 224 | 6.0 | 8.0 | 0.00 | 0.00 | 0.00 | 26 | 1000.3 |
| 20260504233249 | 64 | 214 | 5.0 | 7.0 | 0.00 | 0.00 | 0.00 | 26 | 1000.3 |
| 20260504232746 | 64 | 184 | 10.0 | 13.0 | 0.00 | 0.00 | 0.00 | 25 | 1000.3 |
| 20260504232243 | 64 | 227 | 4.0 | 6.0 | 0.00 | 0.00 | 0.00 | 26 | 1000.3 |
| 20260504231740 | 64 | 201 | 4.0 | 4.0 | 0.00 | 0.00 | 0.00 | 25 | 1000.0 |
| 20260504231237 | 64 | 189 | 4.0 | 6.0 | 0.00 | 0.00 | 0.00 | 24 | 1000.0 |
| 20260504230732 | 64 | 164 | 4.0 | 6.0 | 0.00 | 0.00 | 0.00 | 25 | 1000.3 |
| 20260504230231 | 65 | 245 | 6.0 | 8.0 | 0.00 | 0.00 | 0.00 | 23 | 1000.0 |
| 20260504225730 | 65 | 218 | 3.0 | 4.0 | 0.00 | 0.00 | 0.00 | 23 | 1000.3 |
| 20260504225226 | 65 | 173 | 8.0 | 11.0 | 0.00 | 0.00 | 0.00 | 23 | 1000.0 |
| 20260504224723 | 66 | 184 | 4.0 | 4.0 | 0.00 | 0.00 | 0.00 | 24 | 999.7 |
| 20260504224220 | 66 | 185 | 6.0 | 8.0 | 0.00 | 0.00 | 0.00 | 22 | 999.7 |
| 20260504223716 | 66 | 131 | 7.0 | 9.0 | 0.00 | 0.00 | 0.00 | 21 | 999.3 |
| 20260504223212 | 66 | 215 | 7.0 | 9.0 | 0.00 | 0.00 | 0.00 | 21 | 999.3 |
| 20260504222709 | 66 | 190 | 3.0 | 3.0 | 0.00 | 0.00 | 0.00 | 21 | 999.3 |
| 20260504222206 | 66 | 181 | 1.0 | 3.0 | 0.00 | 0.00 | 0.00 | 21 | 999.0 |
| 20260504221703 | 67 | 259 | 6.0 | 9.0 | 0.00 | 0.00 | 0.00 | 21 | 999.0 |
| 20260504221200 | 66 | 167 | 5.0 | 7.0 | 0.00 | 0.00 | 0.00 | 21 | 999.0 |
| 20260504220656 | 66 | 256 | 3.0 | 4.0 | 0.00 | 0.00 | 0.00 | 22 | 999.0 |
| 20260504220155 | 67 | 167 | 4.0 | 6.0 | 0.00 | 0.00 | 0.00 | 21 | 999.0 |
| 20260504215650 | 67 | 164 | 6.0 | 7.0 | 0.00 | 0.00 | 0.00 | 21 | 999.0 |
| 20260504215148 | 67 | 227 | 6.0 | 10.0 | 0.00 | 0.00 | 0.00 | 20 | 999.0 |
| 20260504214643 | 67 | 224 | 4.0 | 4.0 | 0.00 | 0.00 | 0.00 | 20 | 999.0 |
| 20260504214140 | 67 | 184 | 6.0 | 7.0 | 0.00 | 0.00 | 0.00 | 21 | 999.0 |
| 20260504213637 | 67 | 183 | 5.0 | 7.0 | 0.00 | 0.00 | 0.00 | 22 | 998.6 |
| 20260504213134 | 67 | 200 | 10.0 | 11.0 | 0.00 | 0.00 | 0.00 | 22 | 999.0 |
| 20260504212630 | 67 | 138 | 4.0 | 6.0 | 0.00 | 0.00 | 0.00 | 23 | 998.6 |
| 20260504212127 | 67 | 222 | 5.0 | 6.0 | 0.00 | 0.00 | 0.00 | 23 | 998.6 |
| 20260504211625 | 67 | 170 | 8.0 | 11.0 | 0.00 | 0.00 | 0.00 | 23 | 998.6 |
| 20260504211120 | 67 | 156 | 6.0 | 8.0 | 0.00 | 0.00 | 0.00 | 22 | 998.6 |
| 20260504210618 | 67 | 172 | 7.0 | 9.0 | 0.00 | 0.00 | 0.00 | 22 | 998.6 |
| 20260504210109 | 68 | 198 | 5.0 | 7.0 | 0.00 | 0.00 | 0.00 | 22 | 998.6 |
| 20260504205606 | 68 | 156 | 9.0 | 11.0 | 0.00 | 0.00 | 0.00 | 22 | 998.6 |
| 20260504205104 | 68 | 176 | 4.0 | 4.0 | 0.00 | 0.00 | 0.00 | 23 | 998.6 |
| 20260504204602 | 68 | 195 | 6.0 | 11.0 | 0.00 | 0.00 | 0.00 | 23 | 999.0 |
| 20260504204101 | 69 | 186 | 6.0 | 8.0 | 0.00 | 0.00 | 0.00 | 23 | 998.6 |
| 20260504203559 | 69 | 168 | 6.0 | 7.0 | 0.00 | 0.00 | 0.00 | 22 | 998.6 |
| 20260504203056 | 69 | 147 | 6.0 | 9.0 | 0.00 | 0.00 | 0.00 | 22 | 998.6 |
| 20260504202551 | 70 | 170 | 8.0 | 13.0 | 0.00 | 0.00 | 0.00 | 21 | 998.6 |
| 20260504202048 | 70 | 188 | 3.0 | 4.0 | 0.00 | 0.00 | 0.00 | 21 | 998.6 |
| 20260504201545 | 71 | 270 | 8.0 | 10.0 | 0.00 | 0.00 | 0.00 | 19 | 998.3 |
| 20260504201043 | 72 | 199 | 10.0 | 10.0 | 0.00 | 0.00 | 0.00 | 19 | 998.3 |
| 20260504200539 | 72 | 180 | 8.0 | 10.0 | 0.00 | 0.00 | 0.00 | 18 | 998.3 |
| 20260504200036 | 73 | 196 | 7.0 | 11.0 | 0.00 | 0.00 | 0.00 | 18 | 998.0 |
| 20260504195532 | 73 | 215 | 6.0 | 9.0 | 0.00 | 0.00 | 0.00 | 19 | 998.0 |
| 20260504195029 | 73 | 174 | 6.0 | 8.0 | 0.00 | 0.00 | 0.00 | 20 | 998.0 |
| 20260504194525 | 74 | 196 | 4.0 | 7.0 | 0.00 | 0.00 | 0.00 | 22 | 997.6 |
| 20260504194021 | 74 | 180 | 7.0 | 9.0 | 0.00 | 0.00 | 0.00 | 24 | 997.6 |
| 20260504193518 | 74 | 208 | 6.0 | 8.0 | 0.00 | 0.00 | 0.00 | 22 | 997.6 |
| 20260504193017 | 74 | 224 | 6.0 | 8.0 | 0.00 | 0.00 | 0.00 | 23 | 997.6 |
| 20260504192514 | 74 | 182 | 6.0 | 7.0 | 0.00 | 0.00 | 0.00 | 23 | 997.3 |
| 20260504192013 | 74 | 165 | 4.0 | 4.0 | 0.00 | 0.00 | 0.00 | 21 | 997.6 |
| 20260504191510 | 74 | 193 | 2.0 | 2.0 | 0.00 | 0.00 | 0.00 | 23 | 997.3 |
| 20260504191006 | 74 | 174 | 6.0 | 8.0 | 0.00 | 0.00 | 0.00 | 22 | 997.6 |
| 20260504190502 | 74 | 201 | 8.0 | 9.0 | 0.00 | 0.00 | 0.00 | 22 | 997.3 |
| 20260504185958 | 74 | 153 | 4.0 | 6.0 | 0.00 | 0.00 | 0.00 | 22 | 997.3 |
| 20260504185455 | 74 | 150 | 4.0 | 7.0 | 0.00 | 0.00 | 0.00 | 24 | 997.0 |
| 20260504184952 | 75 | 214 | 7.0 | 10.0 | 0.00 | 0.00 | 0.00 | 21 | 997.3 |
| 20260504184447 | 75 | 124 | 6.0 | 8.0 | 0.00 | 0.00 | 0.00 | 22 | 997.3 |
| 20260504183943 | 76 | 144 | 5.0 | 9.0 | 0.00 | 0.00 | 0.00 | 23 | 997.3 |
| 20260504183440 | 76 | 218 | 6.0 | 9.0 | 0.00 | 0.00 | 0.00 | 23 | 997.0 |
| 20260504182938 | 76 | 240 | 7.0 | 8.0 | 0.00 | 0.00 | 0.00 | 22 | 997.3 |
| 20260504182435 | 76 | 50 | 4.0 | 6.0 | 0.00 | 0.00 | 0.00 | 25 | 997.0 |
| 20260504181932 | 76 | 166 | 11.0 | 15.0 | 0.00 | 0.00 | 0.00 | 22 | 997.0 |
| 20260504181429 | 76 | 172 | 7.0 | 8.0 | 0.00 | 0.00 | 0.00 | 22 | 997.0 |
| 20260504180928 | 76 | 195 | 9.0 | 10.0 | 0.00 | 0.00 | 0.00 | 24 | 997.0 |
| 20260504180426 | 76 | 184 | 5.0 | 7.0 | 0.00 | 0.00 | 0.00 | 26 | 997.0 |
| 20260504175924 | 76 | 184 | 5.0 | 6.0 | 0.00 | 0.00 | 0.00 | 28 | 997.0 |
| 20260504175421 | 76 | 207 | 7.0 | 10.0 | 0.00 | 0.00 | 0.00 | 27 | 997.0 |
| 20260504174919 | 76 | 174 | 6.0 | 8.0 | 0.00 | 0.00 | 0.00 | 26 | 997.0 |
| 20260504174416 | 76 | 177 | 4.0 | 6.0 | 0.00 | 0.00 | 0.00 | 29 | 997.0 |
| 20260504173913 | 76 | 252 | 3.0 | 4.0 | 0.00 | 0.00 | 0.00 | 29 | 997.0 |
| 20260504173409 | 76 | 226 | 5.0 | 9.0 | 0.00 | 0.00 | 0.00 | 28 | 997.0 |
| 20260504172907 | 76 | 192 | 6.0 | 8.0 | 0.00 | 0.00 | 0.00 | 29 | 997.3 |
| 20260504172403 | 76 | 252 | 3.0 | 3.0 | 0.00 | 0.00 | 0.00 | 30 | 997.0 |
| 20260504171859 | 76 | 164 | 5.0 | 8.0 | 0.00 | 0.00 | 0.00 | 28 | 997.0 |
| 20260504171357 | 76 | 213 | 7.0 | 9.0 | 0.00 | 0.00 | 0.00 | 28 | 997.0 |
| 20260504170854 | 76 | 165 | 6.0 | 8.0 | 0.00 | 0.00 | 0.00 | 29 | 997.0 |
| 20260504170350 | 75 | 166 | 6.0 | 7.0 | 0.00 | 0.00 | 0.00 | 28 | 997.0 |
| 20260504160309 | 75 | 210 | 5.0 | 9.0 | 0.00 | 0.00 | 0.00 | 27 | 997.0 |
| 20260504150734 | 72 | 162 | 9.0 | 13.0 | 0.00 | 0.00 | 0.00 | 29 | 997.3 |
| 20260504150231 | 72 | 188 | 10.0 | 13.0 | 0.00 | 0.00 | 0.00 | 29 | 997.3 |
| 20260504141200 | 67 | 164 | 7.0 | 9.0 | 0.00 | 0.00 | 0.00 | 34 | 997.3 |
| 20260504140657 | 66 | 200 | 4.0 | 4.0 | 0.00 | 0.00 | 0.00 | 36 | 997.6 |
| 20260504140152 | 66 | 200 | 7.0 | 8.0 | 0.00 | 0.00 | 0.00 | 35 | 997.6 |
| 20260504130621 | 58 | 170 | 2.0 | 2.0 | 0.00 | 0.00 | 0.00 | 41 | 998.6 |
| 20260504130117 | 57 | 210 | 1.0 | 1.0 | 0.00 | 0.00 | 0.00 | 44 | 999.0 |
| 20260504110509 | 42 | 280 | 0.0 | 1.0 | 0.00 | 0.00 | 0.00 | 65 | 1000.3 |
| 20260504100425 | 42 | 302 | 0.0 | 1.0 | 0.00 | 0.00 | 0.00 | 68 | 1001.1 |
| 20260504081818 | 43 | 248 | 0.0 | 0.0 | 0.00 | 0.00 | 0.00 | 71 | 1002.5 |
| 20260504081315 | 43 | 261 | 0.0 | 1.0 | 0.00 | 0.00 | 0.00 | 70 | 1002.8 |
| 20260504080810 | 43 | 269 | 0.0 | 0.0 | 0.00 | 0.00 | 0.00 | 70 | 1002.5 |
| 20260504080308 | 43 | 252 | 0.0 | 0.0 | 0.00 | 0.00 | 0.00 | 69 | 1002.5 |
| 20260504070229 | 45 | 260 | 0.0 | 0.0 | 0.00 | 0.00 | 0.00 | 63 | 1003.2 |
| 20260504060149 | 48 | 206 | 0.0 | 0.0 | 0.00 | 0.00 | 0.00 | 58 | 1003.8 |